{"data":{"norad_id":68195,"epoch":"2026-09-20T04:33:31.523616Z","epoch_age_seconds":78969,"freshness":"FRESH","line1":"1 68195U 26050AE  26263.18994819  .00012692  00000+0  38610-3 0  9990","line2":"2 68195  53.1581  78.9336 0000791  54.2593 305.8483 15.34403231 28967","mean_motion":15.34403231,"eccentricity":7.91e-5,"inclination_deg":53.1581,"raan_deg":78.9336,"arg_perigee_deg":54.2593,"mean_anomaly_deg":305.8483,"bstar":0.0003861,"rev_number":2896,"period_min":93.847560465675,"perigee_km":462.15252730767,"apogee_km":463.23474671444,"semimajor_km":6840.8306370111,"source":"CELESTRAK","updated_at":"2026-09-20T09:00:43.831877Z"}}